Torna al catalogo

PARUS-6U1

AttivoRadioamatoreSSO
NORAD 68456·PAYLOAD·🇹🇼 Taiwan

Lanciato Mar 30, 2026 da Vandenberg Space Force Base

Loading…

Prossimi Passaggi (prossime 24 ore)

TLE

AggiornatoSource: Space-Track

Epoca: Sep 14, 2026, 20:10 UTC

1 68456U 26067AS  26257.84081588  .00005237  00000-0  25830-3 0  9992
2 68456  97.4654 214.9223 0007337 106.4472 253.7569 15.18326638 25538

Traccia PARUS-6U1 in tempo reale con AllMySat

Download on the App Store